Hourly Data Report for September 07, 2017

All times are specified in Local Standard Time (LST). Add 1 hour to adjust for Daylight Saving Time where and when it is observed.

SAINT JOHN A
NEW BRUNSWICK

45°18'58.000" N
65°53'24.000" W
108.80 m
8104901
71609
YSJ

Download Data

Hourly Data (September 2017)
Hourly Data Report for September 7, 2017
Temp Definition
°C
Dew Point Temp Definition
°C
Rel Hum Definition
%
Wind Dir Definition
10's deg

Wind Spd Definition
km/h
Visibility Definition
km
Stn Press Definition
kPa
Hmdx Definition


Wind Chill Definition


Weather Definition


TIME
00:00 Legend Double Dagger 17.3 17.2 99 19 14 1.0 100.22     Drizzle,Fog
01:00 Legend Double Dagger 18.1 18.0 99 19 12 0.8 100.19     Drizzle,Fog
02:00 Legend Double Dagger 18.9 18.6 98 15 11 3.2 100.14     Drizzle,Fog
03:00 Legend Double Dagger 19.1 18.9 99 17 18 1.6 100.10     Drizzle,Fog
04:00 Legend Double Dagger 19.6 19.5 99 17 14 1.2 99.96     Drizzle,Fog
05:00 Legend Double Dagger 20.0 19.8 99 15 23 2.4 99.85 27   Heavy Rain Showers,Fog
06:00 Legend Double Dagger 20.5 20.1 98 15 26 8.1 99.76 28   Fog
07:00 Legend Double Dagger 20.6 20.3 98 18 20 8.1 99.70 28   Rain,Fog
08:00 Legend Double Dagger 19.1 18.9 99 20 29 0.8 99.68     Rain,Fog
09:00 Legend Double Dagger 18.5 18.2 98 21 34 4.8 99.62     Rain,Fog
10:00 Legend Double Dagger 18.6 18.3 98 20 27 8.1 99.57     Rain,Fog
11:00 Legend Double Dagger 20.1 19.7 98 19 42 4.8 99.50 27   Rain,Fog
12:00 Legend Double Dagger 20.0 19.4 97 19 44 16.1 99.44 27   Rain
13:00 Legend Double Dagger 18.2 18.0 99 21 41 0.8 99.45     Rain,Fog
14:00 Legend Double Dagger 17.2 17.0 99 21 35 0.8 99.46     Fog
15:00 Legend Double Dagger 15.7 15.5 99 21 36 0.4 99.46     Fog
16:00 Legend Double Dagger 14.8 14.7 99 20 40 0.4 99.50     Fog
17:00 Legend Double Dagger 14.2 14.1 99 20 30 0.4 99.54     Fog
18:00 Legend Double Dagger 13.8 13.6 99 20 31 2.4 99.58     Fog
19:00 Legend Double Dagger 13.6 13.3 98 21 24 4.8 99.61     Fog
20:00 Legend Double Dagger 13.7 13.5 98 21 22 4.8 99.71     Fog
21:00 Legend Double Dagger 13.8 13.6 99 20 29 3.2 99.72     Fog
22:00 Legend Double Dagger 13.8 13.7 99 20 21 1.2 99.75     Fog
23:00 Legend Double Dagger 13.5 13.4 99 22 13 0.8 99.78     Fog

Notes on Data Quality.

Legend

  • E = Estimated
  • M = Missing
  • NA = Not Available
  • ‡ = Partner data that is not subject to review by the National Climate Archives
Date modified: